,,PA_Meas_PMT16A,,PR_Meas_QMR101_102,,RH_Meas_QMH101,,SR_Meas_QMS101,,TA_Meas_QMH101,,GenWind,,GenWind,
time,status,PA,status,PR,status,RH,status,SR,status,TA,status,DirAvg,status,SpdAvg,
2012-12-25, 00:00:04,VALID,917.116,VALID,0.2,VALID,97.3815,VALID,0,VALID,19.6263,VALID,131,VALID,0,
2012-12-25, 00:01:04,VALID,917.125,VALID,0,VALID,97.3968,VALID,0,VALID,19.6068,VALID,145,VALID,0,
2012-12-25, 00:02:04,VALID,917.108,VALID,0,VALID,97.3891,VALID,0,VALID,19.6068,VALID,145,VALID,0,
2012-12-25, 00:03:04,VALID,917.081,VALID,0,VALID,97.3968,VALID,0,VALID,19.6068,VALID,145,VALID,0,
2012-12-25, 00:04:04,VALID,917.059,VALID,0,VALID,97.4044,VALID,0,VALID,19.5678,VALID,145,VALID,0,
2012-12-25, 00:05:04,VALID,917.053,VALID,0,VALID,97.412,VALID,0,VALID,19.5663,VALID,144,VALID,0,
2012-12-25, 00:06:04,VALID,917.063,VALID,0,VALID,97.3968,VALID,0.107441,VALID,19.5678,VALID,142,VALID,0,
2012-12-25, 00:07:04,VALID,917.05,VALID,0,VALID,97.3968,VALID,0.107441,VALID,19.5483,VALID,130,VALID,0,
2012-12-25, 00:08:04,VALID,917.045,VALID,0,VALID,97.4196,VALID,0,VALID,19.5483,VALID,131,VALID,0,
2012-12-25, 00:09:04,VALID,917.033,VALID,0,VALID,97.4044,VALID,0.107441,VALID,19.5678,VALID,127,VALID,0,
2012-12-25, 00:10:04,VALID,917.032,VALID,0,VALID,97.412,VALID,0,VALID,19.5693,VALID,130,VALID,0,
2012-12-25, 00:11:04,VALID,917.034,VALID,0,VALID,97.3815,VALID,0,VALID,19.5678,VALID,137,VALID,0,
2012-12-25, 00:12:04,VALID,917.012,VALID,0,VALID,97.3968,VALID,0.107441,VALID,19.5873,VALID,134,VALID,0,
2012-12-25, 00:13:04,VALID,917.006,VALID,0,VALID,97.3815,VALID,0.107441,VALID,19.5858,VALID,128,VALID,0,
2012-12-25, 00:14:04,VALID,917.001,VALID,0.2,VALID,97.3815,VALID,0.107441,VALID,19.6068,VALID,134,VALID,0,
2012-12-25, 00:15:04,VALID,916.981,VALID,0,VALID,97.3968,VALID,0,VALID,19.6083,VALID,125,VALID,0,
2012-12-25, 00:16:04,VALID,916.976,VALID,0,VALID,97.3815,VALID,0,VALID,19.6083,VALID,120,VALID,0,
2012-12-25, 00:17:04,VALID,916.952,VALID,0,VALID,97.3815,VALID,0,VALID,19.6083,VALID,109,VALID,0,
2012-12-25, 00:18:04,VALID,916.916,VALID,0,VALID,97.3739,VALID,0,VALID,19.6278,VALID,136,VALID,0,
2012-12-25, 00:19:04,VALID,916.921,VALID,0,VALID,97.3815,VALID,0,VALID,19.6473,VALID,124,VALID,0,
2012-12-25, 00:20:04,VALID,916.901,VALID,0,VALID,97.3815,VALID,0,VALID,19.6473,VALID,135,VALID,0,
2012-12-25, 00:21:04,VALID,916.886,VALID,0,VALID,97.3663,VALID,0,VALID,19.6458,VALID,130,VALID,0,
2012-12-25, 00:22:04,VALID,916.907,VALID,0,VALID,97.3739,VALID,0,VALID,19.6473,VALID,122,VALID,0,
2012-12-25, 00:23:04,VALID,916.907,VALID,0,VALID,97.3586,VALID,0,VALID,19.6473,VALID,122,VALID,0,
2012-12-25, 00:24:04,VALID,916.85,VALID,0,VALID,97.3434,VALID,0,VALID,19.6668,VALID,121,VALID,0,
2012-12-25, 00:25:04,VALID,916.875,VALID,0,VALID,97.3434,VALID,0,VALID,19.6668,VALID,128,VALID,0,
2012-12-25, 00:26:04,VALID,916.859,VALID,0,VALID,97.351,VALID,0,VALID,19.6263,VALID,130,VALID,0,
2012-12-25, 00:27:04,VALID,916.817,VALID,0,VALID,97.351,VALID,0,VALID,19.6668,VALID,131,VALID,0,
2012-12-25, 00:28:04,VALID,916.813,VALID,0,VALID,97.3281,VALID,0,VALID,19.6668,VALID,124,VALID,0,
2012-12-25, 00:29:04,VALID,916.818,VALID,0.2,VALID,97.3281,VALID,0,VALID,19.6668,VALID,128,VALID,0,
2012-12-25, 00:30:04,VALID,916.795,VALID,0,VALID,97.3205,VALID,0,VALID,19.6668,VALID,131,VALID,0,
2012-12-25, 00:31:04,VALID,916.783,VALID,0,VALID,97.3281,VALID,0,VALID,19.6668,VALID,134,VALID,0,
2012-12-25, 00:32:04,VALID,916.794,VALID,0,VALID,97.3281,VALID,0,VALID,19.6668,VALID,160,VALID,0,
2012-12-25, 00:33:04,VALID,916.778,VALID,0,VALID,97.3205,VALID,0,VALID,19.6473,VALID,128,VALID,0.447266,
2012-12-25, 00:34:04,VALID,916.749,VALID,0,VALID,97.3129,VALID,0,VALID,19.6668,VALID,123,VALID,0,
2012-12-25, 00:35:04,VALID,916.731,VALID,0,VALID,97.3053,VALID,0,VALID,19.6863,VALID,142,VALID,0,
2012-12-25, 00:36:04,VALID,916.698,VALID,0,VALID,97.29,VALID,0,VALID,19.6863,VALID,141,VALID,0,
2012-12-25, 00:37:04,VALID,916.685,VALID,0,VALID,97.29,VALID,0,VALID,19.6863,VALID,135,VALID,0,
2012-12-25, 00:38:04,VALID,916.681,VALID,0,VALID,97.2748,VALID,0,VALID,19.6848,VALID,110,VALID,0,
2012-12-25, 00:39:04,VALID,916.674,VALID,0,VALID,97.2672,VALID,0,VALID,19.7058,VALID,129,VALID,0,
2012-12-25, 00:40:04,VALID,916.636,VALID,0,VALID,97.2672,VALID,0,VALID,19.7043,VALID,137,VALID,0,
2012-12-25, 00:41:04,VALID,916.614,VALID,0,VALID,97.2519,VALID,0,VALID,19.7253,VALID,123,VALID,0,
2012-12-25, 00:42:04,VALID,916.6,VALID,0,VALID,97.2367,VALID,0,VALID,19.7253,VALID,122,VALID,0,
2012-12-25, 00:43:04,VALID,916.582,VALID,0,VALID,97.229,VALID,0,VALID,19.7058,VALID,117,VALID,0,
2012-12-25, 00:44:04,VALID,916.602,VALID,0,VALID,97.2138,VALID,0,VALID,19.6848,VALID,125,VALID,0,
2012-12-25, 00:45:04,VALID,916.595,VALID,0,VALID,97.2062,VALID,0,VALID,19.7058,VALID,148,VALID,1.00859,
2012-12-25, 00:46:04,VALID,916.572,VALID,0,VALID,97.2062,VALID,0,VALID,19.7058,VALID,142,VALID,0.929297,
2012-12-25, 00:47:04,VALID,916.571,VALID,0,VALID,97.1986,VALID,0,VALID,19.7058,VALID,151,VALID,0,
2012-12-25, 00:48:04,VALID,916.528,VALID,0,VALID,97.1986,VALID,0,VALID,19.7253,VALID,153,VALID,0,
2012-12-25, 00:49:04,VALID,916.525,VALID,0.2,VALID,97.1909,VALID,0,VALID,19.7058,VALID,113,VALID,0,
2012-12-25, 00:50:04,VALID,916.523,VALID,0,VALID,97.1986,VALID,0,VALID,19.7058,VALID,157,VALID,0,
2012-12-25, 00:51:04,VALID,916.529,VALID,0,VALID,97.1681,VALID,0,VALID,19.7253,VALID,157,VALID,0,
2012-12-25, 00:52:04,VALID,916.526,VALID,0,VALID,97.1528,VALID,0,VALID,19.7058,VALID,140,VALID,0,
2012-12-25, 00:53:04,VALID,916.497,VALID,0,VALID,97.1681,VALID,0.107441,VALID,19.6863,VALID,161,VALID,0,
2012-12-25, 00:54:04,VALID,916.472,VALID,0,VALID,97.1452,VALID,0,VALID,19.6863,VALID,134,VALID,0.319531,
2012-12-25, 00:55:04,VALID,916.437,VALID,0,VALID,97.1604,VALID,0,VALID,19.6863,VALID,134,VALID,0.845312,
2012-12-25, 00:56:04,VALID,916.429,VALID,0,VALID,97.1681,VALID,0,VALID,19.6863,VALID,130,VALID,0.722656,
2012-12-25, 00:57:04,VALID,916.448,VALID,0,VALID,97.1528,VALID,0,VALID,19.6668,VALID,176,VALID,0,
2012-12-25, 00:58:04,VALID,916.381,VALID,0,VALID,97.1376,VALID,0,VALID,19.6863,VALID,108,VALID,0,
2012-12-25, 00:59:04,VALID,916.37,VALID,0,VALID,97.1452,VALID,0,VALID,19.6863,VALID,153,VALID,0,
2012-12-25, 01:00:04,VALID,916.375,VALID,0,VALID,97.1376,VALID,0,VALID,19.6848,VALID,150,VALID,0,
2012-12-25, 01:01:04,VALID,916.341,VALID,0,VALID,97.1299,VALID,0.107441,VALID,19.6848,VALID,142,VALID,0,
2012-12-25, 01:02:04,VALID,916.321,VALID,0,VALID,97.1147,VALID,0,VALID,19.6848,VALID,141,VALID,0,
2012-12-25, 01:03:04,VALID,916.326,VALID,0,VALID,97.1299,VALID,0.107441,VALID,19.6848,VALID,176,VALID,0,
2012-12-25, 01:04:04,VALID,916.283,VALID,0,VALID,97.1071,VALID,0.107441,VALID,19.6653,VALID,167,VALID,0,
2012-12-25, 01:05:04,VALID,916.255,VALID,0,VALID,97.1147,VALID,0,VALID,19.6848,VALID,158,VALID,0,
2012-12-25, 01:06:04,VALID,916.24,VALID,0,VALID,97.1299,VALID,0.107441,VALID,19.6638,VALID,184,VALID,0,
2012-12-25, 01:07:04,VALID,916.207,VALID,0,VALID,97.0994,VALID,0.107441,VALID,19.6653,VALID,160,VALID,0,
2012-12-25, 01:08:04,VALID,916.178,VALID,0,VALID,97.1299,VALID,0.107441,VALID,19.6653,VALID,145,VALID,0,
2012-12-25, 01:09:04,VALID,916.16,VALID,0,VALID,97.1071,VALID,0.107441,VALID,19.6458,VALID,146,VALID,0,
2012-12-25, 01:10:04,VALID,916.139,VALID,0,VALID,97.1147,VALID,0.107441,VALID,19.6653,VALID,168,VALID,0,
2012-12-25, 01:11:04,VALID,916.118,VALID,0,VALID,97.0842,VALID,0.107441,VALID,19.6458,VALID,136,VALID,0,
2012-12-25, 01:12:04,VALID,916.067,VALID,0,VALID,97.1071,VALID,0,VALID,19.6458,VALID,142,VALID,0,
2012-12-25, 01:13:04,VALID,916.107,VALID,0,VALID,97.1147,VALID,0.107441,VALID,19.6458,VALID,128,VALID,0,
2012-12-25, 01:14:04,VALID,916.09,VALID,0,VALID,97.0994,VALID,0,VALID,19.6263,VALID,147,VALID,0,
2012-12-25, 01:15:04,VALID,916.057,VALID,0,VALID,97.0918,VALID,0,VALID,19.6653,VALID,149,VALID,0,
2012-12-25, 01:16:04,VALID,916.039,VALID,0,VALID,97.0994,VALID,0.107441,VALID,19.6458,VALID,141,VALID,0,
2012-12-25, 01:17:04,VALID,916.033,VALID,0,VALID,97.1071,VALID,0,VALID,19.6458,VALID,150,VALID,0,
2012-12-25, 01:18:04,VALID,916.011,VALID,0,VALID,97.0994,VALID,0.107441,VALID,19.6263,VALID,150,VALID,0,
2012-12-25, 01:19:04,VALID,916.009,VALID,0.2,VALID,97.0766,VALID,0.107441,VALID,19.6263,VALID,118,VALID,0,
2012-12-25, 01:20:04,VALID,915.982,VALID,0,VALID,97.0766,VALID,0.107441,VALID,19.6263,VALID,118,VALID,0,
2012-12-25, 01:21:04,VALID,915.981,VALID,0,VALID,97.0918,VALID,0,VALID,19.6068,VALID,118,VALID,0,
2012-12-25, 01:22:04,VALID,915.943,VALID,0,VALID,97.0994,VALID,0.107441,VALID,19.5873,VALID,118,VALID,0,
2012-12-25, 01:23:04,VALID,915.934,VALID,0,VALID,97.1071,VALID,0.107441,VALID,19.5873,VALID,125,VALID,0,
2012-12-25, 01:24:04,VALID,915.914,VALID,0,VALID,97.0994,VALID,0.107441,VALID,19.5873,VALID,194,VALID,0,
2012-12-25, 01:25:04,VALID,915.901,VALID,0,VALID,97.0918,VALID,0,VALID,19.5873,VALID,120,VALID,0,
2012-12-25, 01:26:04,VALID,915.869,VALID,0,VALID,97.0918,VALID,0.107441,VALID,19.6068,VALID,128,VALID,0,
2012-12-25, 01:27:04,VALID,915.842,VALID,0,VALID,97.0766,VALID,0.107441,VALID,19.5663,VALID,160,VALID,0,
2012-12-25, 01:28:04,VALID,915.834,VALID,0,VALID,97.1071,VALID,0,VALID,19.5873,VALID,160,VALID,0,
2012-12-25, 01:29:04,VALID,915.82,VALID,0,VALID,97.1071,VALID,0,VALID,19.5873,VALID,160,VALID,0,
2012-12-25, 01:30:04,VALID,915.787,VALID,0,VALID,97.0918,VALID,0,VALID,19.5693,VALID,155,VALID,0,
2012-12-25, 01:31:04,VALID,915.796,VALID,0,VALID,97.0918,VALID,0,VALID,19.5678,VALID,158,VALID,0,
2012-12-25, 01:32:04,VALID,915.78,VALID,0,VALID,97.0994,VALID,0,VALID,19.6083,VALID,158,VALID,0,
2012-12-25, 01:33:04,VALID,915.75,VALID,0,VALID,97.0842,VALID,0,VALID,19.5888,VALID,155,VALID,0,
2012-12-25, 01:34:04,VALID,915.73,VALID,0,VALID,97.0766,VALID,0,VALID,19.5693,VALID,164,VALID,0,
2012-12-25, 01:35:04,VALID,915.703,VALID,0,VALID,97.0842,VALID,0,VALID,19.5693,VALID,131,VALID,0,
2012-12-25, 01:36:04,VALID,915.701,VALID,0,VALID,97.0842,VALID,0,VALID,19.5888,VALID,131,VALID,0,
2012-12-25, 01:37:04,VALID,915.671,VALID,0,VALID,97.0766,VALID,0,VALID,19.5693,VALID,131,VALID,0,
2012-12-25, 01:38:04,VALID,915.653,VALID,0,VALID,97.0766,VALID,0,VALID,19.5693,VALID,154,VALID,0,
2012-12-25, 01:39:04,VALID,915.633,VALID,0,VALID,97.0842,VALID,0,VALID,19.5693,VALID,158,VALID,0,
2012-12-25, 01:40:04,VALID,915.585,VALID,0,VALID,97.0766,VALID,0,VALID,19.5483,VALID,133,VALID,0,
2012-12-25, 01:41:04,VALID,915.564,VALID,0,VALID,97.069,VALID,0,VALID,19.5693,VALID,151,VALID,0,
2012-12-25, 01:42:04,VALID,915.533,VALID,0,VALID,97.0842,VALID,0,VALID,19.5498,VALID,142,VALID,0,
2012-12-25, 01:43:04,VALID,915.495,VALID,0,VALID,97.0918,VALID,0,VALID,19.5288,VALID,142,VALID,0,
2012-12-25, 01:44:04,VALID,915.494,VALID,0,VALID,97.0537,VALID,0,VALID,19.5303,VALID,129,VALID,0,
2012-12-25, 01:45:04,VALID,915.456,VALID,0,VALID,97.0537,VALID,0,VALID,19.5303,VALID,138,VALID,0,
2012-12-25, 01:46:04,VALID,915.414,VALID,0,VALID,97.0613,VALID,0,VALID,19.5303,VALID,142,VALID,0,
2012-12-25, 01:47:04,VALID,915.42,VALID,0,VALID,97.0537,VALID,0,VALID,19.5108,VALID,135,VALID,0,
2012-12-25, 01:48:04,VALID,915.392,VALID,0,VALID,97.0613,VALID,0,VALID,19.5108,VALID,137,VALID,0,
2012-12-25, 01:49:04,VALID,915.358,VALID,0,VALID,97.0613,VALID,0,VALID,19.4913,VALID,137,VALID,0,
2012-12-25, 01:50:04,VALID,915.346,VALID,0,VALID,97.069,VALID,0,VALID,19.4913,VALID,128,VALID,0,
2012-12-25, 01:51:04,VALID,915.332,VALID,0,VALID,97.0842,VALID,0,VALID,19.4703,VALID,138,VALID,0,
2012-12-25, 01:52:04,VALID,915.308,VALID,0,VALID,97.0842,VALID,0,VALID,19.4718,VALID,154,VALID,0,
2012-12-25, 01:53:04,VALID,915.31,VALID,0,VALID,97.1071,VALID,0,VALID,19.4913,VALID,154,VALID,0,
2012-12-25, 01:54:04,VALID,915.318,VALID,0,VALID,97.0842,VALID,0,VALID,19.4913,VALID,164,VALID,0,
2012-12-25, 01:55:04,VALID,915.285,VALID,0,VALID,97.1147,VALID,0,VALID,19.4913,VALID,175,VALID,0,
2012-12-25, 01:56:04,VALID,915.267,VALID,0,VALID,97.1071,VALID,0,VALID,19.4913,VALID,148,VALID,0,
2012-12-25, 01:57:04,VALID,915.256,VALID,0,VALID,97.1223,VALID,0,VALID,19.4913,VALID,166,VALID,0,
2012-12-25, 01:58:04,VALID,915.243,VALID,0,VALID,97.1299,VALID,0,VALID,19.4913,VALID,183,VALID,0,
2012-12-25, 01:59:04,VALID,915.276,VALID,0,VALID,97.1376,VALID,0,VALID,19.4703,VALID,167,VALID,0,
2012-12-25, 02:00:04,VALID,915.228,VALID,0,VALID,97.1528,VALID,0,VALID,19.4718,VALID,167,VALID,0,
2012-12-25, 02:01:04,VALID,915.248,VALID,0,VALID,97.1452,VALID,0,VALID,19.4913,VALID,160,VALID,0,
2012-12-25, 02:02:04,VALID,915.195,VALID,0,VALID,97.1604,VALID,0,VALID,19.4718,VALID,153,VALID,0,
2012-12-25, 02:03:04,VALID,915.225,VALID,0,VALID,97.1528,VALID,0,VALID,19.4718,VALID,162,VALID,0,
2012-12-25, 02:04:04,VALID,915.184,VALID,0,VALID,97.1604,VALID,0,VALID,19.4913,VALID,178,VALID,0,
2012-12-25, 02:05:04,VALID,915.199,VALID,0,VALID,97.1604,VALID,0,VALID,19.5108,VALID,179,VALID,0,
2012-12-25, 02:06:04,VALID,915.147,VALID,0,VALID,97.1681,VALID,0,VALID,19.4913,VALID,187,VALID,0,
2012-12-25, 02:07:04,VALID,915.162,VALID,0,VALID,97.1681,VALID,0,VALID,19.5108,VALID,104,VALID,0,
2012-12-25, 02:08:04,VALID,915.153,VALID,0,VALID,97.1909,VALID,0,VALID,19.4913,VALID,168,VALID,0,
2012-12-25, 02:09:04,VALID,915.117,VALID,0,VALID,97.1604,VALID,0,VALID,19.5108,VALID,166,VALID,0,
2012-12-25, 02:10:04,VALID,915.108,VALID,0,VALID,97.1681,VALID,0,VALID,19.5108,VALID,168,VALID,0,
2012-12-25, 02:11:04,VALID,915.083,VALID,0,VALID,97.1833,VALID,0,VALID,19.4898,VALID,127,VALID,0,
2012-12-25, 02:12:04,VALID,915.046,VALID,0,VALID,97.1681,VALID,0,VALID,19.4898,VALID,118,VALID,0,
2012-12-25, 02:13:04,VALID,915.051,VALID,0,VALID,97.1757,VALID,0,VALID,19.4913,VALID,130,VALID,0,
2012-12-25, 02:14:04,VALID,915.016,VALID,0,VALID,97.1833,VALID,0,VALID,19.5108,VALID,147,VALID,0,
2012-12-25, 02:15:04,VALID,915.014,VALID,0,VALID,97.1833,VALID,0,VALID,19.5093,VALID,145,VALID,0,
2012-12-25, 02:16:04,VALID,914.974,VALID,0,VALID,97.1757,VALID,0,VALID,19.5303,VALID,123,VALID,0,
2012-12-25, 02:17:04,VALID,914.949,VALID,0,VALID,97.1528,VALID,0,VALID,19.5108,VALID,148,VALID,0,
2012-12-25, 02:18:04,VALID,914.914,VALID,0,VALID,97.1604,VALID,0,VALID,19.5303,VALID,151,VALID,0,
2012-12-25, 02:19:04,VALID,914.921,VALID,0,VALID,97.1757,VALID,0,VALID,19.5303,VALID,126,VALID,0,
2012-12-25, 02:20:04,VALID,914.923,VALID,0,VALID,97.1528,VALID,0,VALID,19.5303,VALID,149,VALID,0,
2012-12-25, 02:21:04,VALID,914.933,VALID,0,VALID,97.1604,VALID,0,VALID,19.5303,VALID,187,VALID,0,
2012-12-25, 02:22:04,VALID,914.892,VALID,0,VALID,97.1528,VALID,0,VALID,19.5303,VALID,182,VALID,0,
2012-12-25, 02:23:04,VALID,914.886,VALID,0,VALID,97.1452,VALID,0,VALID,19.5303,VALID,179,VALID,0,
2012-12-25, 02:24:04,VALID,914.877,VALID,0,VALID,97.1528,VALID,0,VALID,19.5303,VALID,146,VALID,0,
2012-12-25, 02:25:04,VALID,914.896,VALID,0,VALID,97.1376,VALID,0,VALID,19.5303,VALID,143,VALID,0,
2012-12-25, 02:26:04,VALID,914.891,VALID,0,VALID,97.1299,VALID,0,VALID,19.5303,VALID,158,VALID,0,
2012-12-25, 02:27:04,VALID,914.862,VALID,0,VALID,97.1223,VALID,0,VALID,19.5498,VALID,163,VALID,0,
2012-12-25, 02:28:04,VALID,914.87,VALID,0,VALID,97.1223,VALID,0,VALID,19.5093,VALID,146,VALID,0,
2012-12-25, 02:29:04,VALID,914.852,VALID,0,VALID,97.0994,VALID,0,VALID,19.5498,VALID,119,VALID,0,
2012-12-25, 02:30:04,VALID,914.858,VALID,0,VALID,97.1071,VALID,0,VALID,19.5498,VALID,159,VALID,0,
2012-12-25, 02:31:04,VALID,914.829,VALID,0,VALID,97.0842,VALID,0,VALID,19.5498,VALID,181,VALID,0,
2012-12-25, 02:32:04,VALID,914.826,VALID,0,VALID,97.069,VALID,0,VALID,19.5498,VALID,119,VALID,0,
2012-12-25, 02:33:04,VALID,914.815,VALID,0,VALID,97.069,VALID,0,VALID,19.5512,VALID,154,VALID,0,
2012-12-25, 02:34:04,VALID,914.792,VALID,0,VALID,97.0613,VALID,0,VALID,19.5498,VALID,153,VALID,0,
2012-12-25, 02:35:04,VALID,914.77,VALID,0,VALID,97.0385,VALID,0,VALID,19.5093,VALID,138,VALID,0,
2012-12-25, 02:36:04,VALID,914.763,VALID,0,VALID,97.0385,VALID,0,VALID,19.5303,VALID,182,VALID,0,
2012-12-25, 02:37:04,VALID,914.738,VALID,0,VALID,97.008,VALID,0,VALID,19.5498,VALID,172,VALID,0,
2012-12-25, 02:38:04,VALID,914.731,VALID,0,VALID,96.9851,VALID,0,VALID,19.5693,VALID,164,VALID,0,
2012-12-25, 02:39:04,VALID,914.724,VALID,0,VALID,96.9927,VALID,0,VALID,19.5498,VALID,119,VALID,0,
2012-12-25, 02:40:04,VALID,914.675,VALID,0,VALID,96.9698,VALID,0,VALID,19.5303,VALID,109,VALID,0,
2012-12-25, 02:41:04,VALID,914.7,VALID,0,VALID,96.947,VALID,0,VALID,19.5303,VALID,135,VALID,0,
2012-12-25, 02:42:04,VALID,914.673,VALID,0,VALID,96.9241,VALID,0,VALID,19.5093,VALID,131,VALID,0,
2012-12-25, 02:43:04,VALID,914.626,VALID,0,VALID,96.9241,VALID,0,VALID,19.5303,VALID,134,VALID,0,
2012-12-25, 02:44:04,VALID,914.678,VALID,0,VALID,96.8936,VALID,0,VALID,19.5303,VALID,129,VALID,0,
2012-12-25, 02:45:04,VALID,914.624,VALID,0,VALID,96.8707,VALID,0,VALID,19.5303,VALID,127,VALID,0,
2012-12-25, 02:46:04,VALID,914.636,VALID,0,VALID,96.8326,VALID,0,VALID,19.5303,VALID,109,VALID,0,
2012-12-25, 02:47:04,VALID,914.58,VALID,0,VALID,96.8326,VALID,0,VALID,19.5303,VALID,125,VALID,0,
2012-12-25, 02:48:04,VALID,914.567,VALID,0,VALID,96.8098,VALID,0,VALID,19.5108,VALID,123,VALID,0,
2012-12-25, 02:49:04,VALID,914.544,VALID,0,VALID,96.8021,VALID,0,VALID,19.5303,VALID,129,VALID,0,
2012-12-25, 02:50:04,VALID,914.552,VALID,0,VALID,96.764,VALID,0,VALID,19.5303,VALID,115,VALID,0,
2012-12-25, 02:51:04,VALID,914.518,VALID,0,VALID,96.7564,VALID,0,VALID,19.5108,VALID,130,VALID,0,
2012-12-25, 02:52:04,VALID,914.557,VALID,0,VALID,96.7411,VALID,0,VALID,19.5108,VALID,116,VALID,0,
2012-12-25, 02:53:04,VALID,914.516,VALID,0,VALID,96.7488,VALID,0,VALID,19.5317,VALID,127,VALID,0,
2012-12-25, 02:54:04,VALID,914.478,VALID,0,VALID,96.7183,VALID,0,VALID,19.5303,VALID,116,VALID,0,
2012-12-25, 02:55:04,VALID,914.52,VALID,0,VALID,96.7107,VALID,0,VALID,19.5108,VALID,125,VALID,0,
2012-12-25, 02:56:04,VALID,914.496,VALID,0,VALID,96.7183,VALID,0,VALID,19.5108,VALID,126,VALID,0,
2012-12-25, 02:57:04,VALID,914.496,VALID,0,VALID,96.6878,VALID,0,VALID,19.5108,VALID,125,VALID,0,
2012-12-25, 02:58:04,VALID,914.514,VALID,0,VALID,96.6802,VALID,0,VALID,19.5108,VALID,136,VALID,0,
2012-12-25, 02:59:04,VALID,914.496,VALID,0,VALID,96.6878,VALID,0,VALID,19.5108,VALID,136,VALID,0,
2012-12-25, 03:00:04,VALID,914.445,VALID,0,VALID,96.6725,VALID,0,VALID,19.5108,VALID,135,VALID,0,
2012-12-25, 03:01:04,VALID,914.44,VALID,0,VALID,96.6802,VALID,0,VALID,19.4913,VALID,141,VALID,0,
2012-12-25, 03:02:04,VALID,914.445,VALID,0,VALID,96.6649,VALID,0,VALID,19.5108,VALID,142,VALID,0,
2012-12-25, 03:03:04,VALID,914.449,VALID,0,VALID,96.6725,VALID,0,VALID,19.5303,VALID,131,VALID,0,
2012-12-25, 03:04:04,VALID,914.458,VALID,0,VALID,96.6497,VALID,0,VALID,19.5303,VALID,129,VALID,0,
2012-12-25, 03:05:04,VALID,914.443,VALID,0,VALID,96.6192,VALID,0,VALID,19.5303,VALID,131,VALID,0,
2012-12-25, 03:06:04,VALID,914.425,VALID,0,VALID,96.6039,VALID,0,VALID,19.5303,VALID,131,VALID,0,
2012-12-25, 03:07:04,VALID,914.447,VALID,0,VALID,96.5429,VALID,0,VALID,19.5303,VALID,117,VALID,0,
2012-12-25, 03:08:04,VALID,914.43,VALID,0,VALID,96.5201,VALID,0,VALID,19.5498,VALID,131,VALID,0,
2012-12-25, 03:09:04,VALID,914.427,VALID,0,VALID,96.4819,VALID,0,VALID,19.5108,VALID,120,VALID,0,
2012-12-25, 03:10:04,VALID,914.424,VALID,0,VALID,96.4972,VALID,0,VALID,19.5303,VALID,121,VALID,0,
2012-12-25, 03:11:04,VALID,914.407,VALID,0,VALID,96.4591,VALID,0,VALID,19.5303,VALID,129,VALID,0,
2012-12-25, 03:12:04,VALID,914.371,VALID,0,VALID,96.4362,VALID,0,VALID,19.5498,VALID,100,VALID,0,
2012-12-25, 03:13:04,VALID,914.387,VALID,0,VALID,96.4057,VALID,0,VALID,19.5498,VALID,127,VALID,0,
2012-12-25, 03:14:04,VALID,914.392,VALID,0,VALID,96.3752,VALID,0,VALID,19.5303,VALID,133,VALID,0,
2012-12-25, 03:15:04,VALID,914.351,VALID,0,VALID,96.3295,VALID,0,VALID,19.5093,VALID,118,VALID,0,
2012-12-25, 03:16:04,VALID,914.362,VALID,0,VALID,96.2914,VALID,0,VALID,19.5288,VALID,128,VALID,0,
2012-12-25, 03:17:04,VALID,914.374,VALID,0,VALID,96.2304,VALID,0,VALID,19.5288,VALID,123,VALID,0,
2012-12-25, 03:18:04,VALID,914.339,VALID,0,VALID,96.1846,VALID,0,VALID,19.5483,VALID,110,VALID,0,
2012-12-25, 03:19:04,VALID,914.319,VALID,0,VALID,96.1541,VALID,0,VALID,19.5288,VALID,127,VALID,0,
2012-12-25, 03:20:04,VALID,914.322,VALID,0,VALID,96.0855,VALID,0,VALID,19.5288,VALID,126,VALID,0,
2012-12-25, 03:21:04,VALID,914.367,VALID,0,VALID,96.0703,VALID,0,VALID,19.5498,VALID,138,VALID,0,
2012-12-25, 03:22:04,VALID,914.34,VALID,0,VALID,96.0322,VALID,0,VALID,19.5288,VALID,155,VALID,0,
2012-12-25, 03:23:04,VALID,914.334,VALID,0,VALID,95.9636,VALID,0,VALID,19.5483,VALID,147,VALID,0,
2012-12-25, 03:24:04,VALID,914.344,VALID,0,VALID,95.895,VALID,0,VALID,19.5483,VALID,128,VALID,0,
2012-12-25, 03:25:04,VALID,914.31,VALID,0,VALID,95.8645,VALID,0,VALID,19.5288,VALID,129,VALID,0,
2012-12-25, 03:26:04,VALID,914.297,VALID,0,VALID,95.8416,VALID,0,VALID,19.5288,VALID,122,VALID,0,
2012-12-25, 03:27:04,VALID,914.293,VALID,0,VALID,95.8035,VALID,0,VALID,19.5093,VALID,130,VALID,0,
2012-12-25, 03:28:04,VALID,914.277,VALID,0,VALID,95.7044,VALID,0,VALID,19.5483,VALID,160,VALID,1.27969,
2012-12-25, 03:29:04,VALID,914.239,VALID,0,VALID,95.5519,VALID,0,VALID,19.5888,VALID,134,VALID,0,
2012-12-25, 03:30:04,VALID,914.252,VALID,0,VALID,95.3842,VALID,0,VALID,19.6293,VALID,131,VALID,0,
2012-12-25, 03:31:04,VALID,914.258,VALID,0,VALID,95.2851,VALID,0,VALID,19.6083,VALID,129,VALID,0,
2012-12-25, 03:32:04,VALID,914.217,VALID,0,VALID,95.2546,VALID,0,VALID,19.6083,VALID,146,VALID,0,
2012-12-25, 03:33:04,VALID,914.187,VALID,0,VALID,95.1326,VALID,0,VALID,19.6083,VALID,147,VALID,1.95898,
2012-12-25, 03:34:04,VALID,914.215,VALID,0,VALID,94.9649,VALID,0,VALID,19.6473,VALID,135,VALID,1.34883,
2012-12-25, 03:35:04,VALID,914.232,VALID,0,VALID,94.9496,VALID,0,VALID,19.6683,VALID,152,VALID,0,
2012-12-25, 03:36:04,VALID,914.207,VALID,0,VALID,94.9115,VALID,0,VALID,19.6083,VALID,137,VALID,0,
2012-12-25, 03:37:04,VALID,914.209,VALID,0,VALID,94.9039,VALID,0,VALID,19.6083,VALID,134,VALID,0,
2012-12-25, 03:38:04,VALID,914.182,VALID,0,VALID,94.8887,VALID,0,VALID,19.6083,VALID,138,VALID,0,
2012-12-25, 03:39:04,VALID,914.186,VALID,0,VALID,94.8963,VALID,0,VALID,19.5888,VALID,136,VALID,0,
2012-12-25, 03:40:04,VALID,914.193,VALID,0,VALID,94.9344,VALID,0,VALID,19.5888,VALID,129,VALID,0,
2012-12-25, 03:41:04,VALID,914.19,VALID,0,VALID,94.9573,VALID,0,VALID,19.5693,VALID,140,VALID,0,
2012-12-25, 03:42:04,VALID,914.121,VALID,0,VALID,94.9573,VALID,0,VALID,19.5693,VALID,139,VALID,0.757813,
2012-12-25, 03:43:04,VALID,914.164,VALID,0,VALID,94.9725,VALID,0,VALID,19.5693,VALID,175,VALID,0.725391,
2012-12-25, 03:44:04,VALID,914.159,VALID,0,VALID,94.9878,VALID,0,VALID,19.5693,VALID,186,VALID,0,
2012-12-25, 03:45:04,VALID,914.154,VALID,0,VALID,94.9725,VALID,0,VALID,19.5693,VALID,132,VALID,0,
2012-12-25, 03:46:04,VALID,914.147,VALID,0,VALID,94.9573,VALID,0,VALID,19.5693,VALID,140,VALID,0,
2012-12-25, 03:47:04,VALID,914.192,VALID,0,VALID,94.8963,VALID,0,VALID,19.5693,VALID,139,VALID,0,
2012-12-25, 03:48:04,VALID,914.179,VALID,0,VALID,94.8429,VALID,0,VALID,19.6098,VALID,137,VALID,0,
2012-12-25, 03:49:04,VALID,914.156,VALID,0,VALID,94.5913,VALID,0,VALID,19.6473,VALID,135,VALID,0,
2012-12-25, 03:50:04,VALID,914.148,VALID,0,VALID,94.3779,VALID,0,VALID,19.6863,VALID,128,VALID,0,
2012-12-25, 03:51:04,VALID,914.157,VALID,0,VALID,94.3169,VALID,0,VALID,19.6668,VALID,132,VALID,0,
2012-12-25, 03:52:04,VALID,914.167,VALID,0,VALID,94.2026,VALID,0,VALID,19.6473,VALID,136,VALID,0,
2012-12-25, 03:53:04,VALID,914.175,VALID,0,VALID,94.1949,VALID,0,VALID,19.6683,VALID,128,VALID,0,
2012-12-25, 03:54:04,VALID,914.174,VALID,0,VALID,94.2178,VALID,0,VALID,19.6683,VALID,128,VALID,0,
2012-12-25, 03:55:04,VALID,914.178,VALID,0,VALID,94.2254,VALID,0,VALID,19.6473,VALID,145,VALID,0,
2012-12-25, 03:56:04,VALID,914.186,VALID,0,VALID,94.2102,VALID,0,VALID,19.6473,VALID,135,VALID,0,
2012-12-25, 03:57:04,VALID,914.159,VALID,0,VALID,94.0577,VALID,0,VALID,19.6878,VALID,140,VALID,0,